Flag for Canada Weather past 2 weeks in Morden, Manitoba, Canada

Now
74 °F

Mild.


Feels Like: 77 °F
Forecast: 58 / 83 °F
Wind: 2 mph from Northeast

Location: Morden CDA CS

Current Time: Aug 1, 2014 at 11:13:47 AM

Latest Report: Aug 1, 2014 at 10:00 AM


Visibility: N/A

Pressure: 30.04 "Hg

Humidity: 56%

Dew point: 58 °F

Location of MordenLocation

Historic Weather in Morden — Graph

°F

Morden temperature yesterday

Maximum temperature yesterday: 80 °F (at 4:00 PM)
Minimum temperature yesterday: 60 °F (at 4:00 AM)
Average temperature yesterday: 71 °F

Past Weeks' High & Low Weather Summary

 TemperatureHumidityPressure
High88 °F (Jul 20, 2:00 PM)99% (Jul 24, 2:00 AM)30.32 "Hg (Jul 24, 2:00 AM)
Low51 °F (Jul 24, 2:00 AM)31% (Jul 25, 2:00 PM)29.48 "Hg (Jul 20, 10:00 AM)
Average68 °F69%29.90 "Hg
* Reported Jul 17 10:00 AM — Aug 1 10:00 AM, Morden, Weather by CustomWeather, © 2014

Note: Actual official high and low records may vary slightly from our data, if they occured in-between our weather recording intervals... More about our weather records

Advertising

Morden weather history for previous 24 hours

 ConditionsComfort  
Time TempWeatherWind HumidityBarometerVisibility
10:00 AM
Aug 1
74 °FMild.2 mph56%30.04 "HgN/A
9:00 AM71 °FMild.1 mph67%30.03 "HgN/A
8:00 AM66 °FMild.1 mph74%30.02 "HgN/A
7:00 AM62 °FCool.5 mph81%30.02 "HgN/A
6:00 AM58 °FCool.2 mph89%30.01 "HgN/A
5:00 AM57 °FCool.2 mph84%30.02 "HgN/A
4:00 AM57 °FCool.3 mph91%30.01 "HgN/A
3:00 AM58 °FCool.3 mph89%30.01 "HgN/A
2:00 AM59 °FCool.3 mph87%30.01 "HgN/A
1:00 AM60 °FCool.2 mph85%30.01 "HgN/A
12:00 AM64 °FMild.3 mph74%29.99 "HgN/A
11:00 PM
Jul 31
65 °FMild.5 mph75%29.99 "HgN/A
10:00 PM67 °FMild.3 mph73%29.98 "HgN/A
9:00 PM71 °FMild.2 mph66%29.96 "HgN/A
8:00 PM75 °FMild.3 mph62%29.96 "HgN/A
7:00 PM77 °FWarm.6 mph56%29.97 "HgN/A
6:00 PM79 °FWarm.5 mph50%29.97 "HgN/A
5:00 PM79 °FWarm.7 mph51%29.98 "HgN/A
4:00 PM80 °FWarm.7 mph49%29.98 "HgN/A
3:00 PM79 °FWarm.5 mph50%29.98 "HgN/A
2:00 PM79 °FWarm.6 mph51%29.98 "HgN/A
1:00 PM79 °FWarm.6 mph54%29.98 "HgN/A
12:00 PM78 °FWarm.3 mph54%29.99 "HgN/A
11:00 AM76 °FMild.5 mph56%29.99 "HgN/A
Weather by CustomWeather, © 2014

See weather overviewHow to use our weather pages